FW1075 Weather Reports


Display with metric or nautical units.
time (UTC)temp
F
wind
direction
speed
MPH
gust
MPH
rain 1hr
in
rain 24hr
in
rain mn
in
humidity
%
barometer
mb
20260508094122 48 326 2.0 3.0 0.00 0.00 0.00 89 1009.7
20260508093146 48 21 3.0 5.0 0.00 0.00 0.00 89 1009.7
20260508092124 48 330 3.0 5.0 0.00 0.00 0.00 89 1009.8
20260508091122 48 331 3.0 6.0 0.00 0.00 0.00 88 1009.7
20260508090121 48 313 4.0 5.0 0.00 0.00 0.00 88 1009.6
20260508085123 48 333 3.0 5.0 0.00 0.01 0.00 88 1009.6
20260508084121 47 332 3.0 6.0 0.00 0.01 0.00 87 1009.5
20260508083122 48 338 4.0 7.0 0.00 0.01 0.00 86 1009.4
20260508082146 48 337 3.0 6.0 0.00 0.01 0.00 85 1009.4
20260508081124 48 351 4.0 8.0 0.00 0.01 0.00 85 1009.1
20260508080142 48 18 4.0 8.0 0.00 0.01 0.00 82 1009.1
20260508075121 48 336 3.0 5.0 0.00 0.01 0.00 81 1009.1
20260508074123 48 327 3.0 7.0 0.00 0.01 0.00 80 1009.2
20260508073142 49 321 4.0 7.0 0.00 0.01 0.00 79 1009.2
20260508072121 49 347 4.0 9.0 0.00 0.01 0.00 77 1009.2
20260508071123 50 332 4.0 7.0 0.00 0.01 0.00 73 1009.2
20260508070146 50 11 4.0 7.0 0.00 0.02 0.00 72 1009.2
20260508065121 50 321 4.0 8.0 0.00 0.02 0.00 75 1009.2
20260508064121 50 2 3.0 7.0 0.00 0.05 0.00 84 1009.2
20260508063122 50 329 4.0 6.0 0.00 0.08 0.00 77 1009.4
20260508062143 49 310 3.0 6.0 0.00 0.11 0.00 74 1008.5
20260508061143 46 344 0.0 2.0 0.00 0.14 0.00 92 1007.9
20260508060122 46 74 1.0 2.0 0.00 0.15 0.00 96 1007.8
20260508055145 45 86 1.0 2.0 0.00 0.15 0.00 99 1007.8
20260508054126 45 93 1.0 3.0 0.00 0.15 0.00 99 1007.7
20260508053125 45 90 0.0 0.0 0.00 0.15 0.00 99 1007.5
20260508052123 46 223 0.0 2.0 0.00 0.15 0.00 99 1007.6
20260508051121 45 56 0.0 2.0 0.00 0.15 0.00 99 1007.2
20260508050142 45 135 0.0 0.0 0.00 0.15 0.00 99 1007.5
20260508045121 45 90 0.0 0.0 0.00 0.15 0.00 99 1007.5
20260508044121 46 45 0.0 0.0 0.00 0.15 0.00 99 1007.4
20260508043121 46 270 0.0 0.0 0.00 0.15 0.00 99 1007.2
20260508042121 46 113 0.0 0.0 0.00 0.15 0.00 98 1007.2
20260508041122 47 180 0.0 0.0 0.00 0.15 0.00 98 1007.5
20260508040121 47 203 0.0 0.0 0.00 0.15 0.00 98 1007.6
20260508035121 47 23 0.0 0.0 0.00 0.15 0.15 98 1007.6
20260508034142 47 68 0.0 0.0 0.00 0.15 0.15 97 1007.6
20260508033127 47 180 0.0 0.0 0.00 0.15 0.15 95 1007.7
20260508032127 48 203 0.0 0.0 0.00 0.15 0.15 96 1007.7
20260508031121 48 338 0.0 0.0 0.00 0.15 0.15 94 1007.6
20260508030123 48 270 0.0 0.0 0.00 0.15 0.15 93 1007.6
20260508025122 48 99 0.0 2.0 0.00 0.16 0.15 93 1007.6
20260508024123 48 113 0.0 0.0 0.00 0.16 0.15 90 1007.7
20260508023122 48 315 0.0 0.0 0.00 0.16 0.15 88 1007.6
20260508022123 49 113 0.0 0.0 0.00 0.16 0.15 86 1007.6
20260508021145 49 73 0.0 1.0 0.00 0.17 0.15 86 1007.5
20260508020123 50 102 0.0 2.0 0.00 0.18 0.15 84 1007.5
20260508015148 51 135 0.0 0.0 0.00 0.18 0.15 81 1007.5
20260508014128 51 237 0.0 2.0 0.00 0.18 0.15 81 1007.6
20260508013122 52 204 1.0 2.0 0.00 0.20 0.15 81 1007.5
20260508012142 53 212 1.0 3.0 0.00 0.20 0.15 79 1007.5
20260508011123 53 110 1.0 3.0 0.00 0.20 0.15 77 1007.2
20260508010121 54 212 2.0 4.0 0.00 0.20 0.15 75 1007.1
20260508005143 55 190 1.0 3.0 0.00 0.20 0.15 73 1007.1
20260508004122 55 266 1.0 2.0 0.00 0.20 0.15 69 1006.9
20260508003123 56 257 0.0 3.0 0.00 0.20 0.15 56 1006.6
20260508002143 57 23 0.0 1.0 0.00 0.20 0.15 53 1006.5
20260508001122 58 73 1.0 2.0 0.00 0.20 0.15 48 1006.4
20260508000121 58 38 2.0 3.0 0.00 0.20 0.15 47 1006.4
20260507235122 59 320 2.0 3.0 0.00 0.20 0.15 46 1006.4
20260507234121 60 320 3.0 5.0 0.00 0.20 0.15 44 1006.1
20260507233121 61 288 4.0 8.0 0.00 0.20 0.15 43 1006.1
20260507232121 61 335 4.0 8.0 0.00 0.20 0.15 43 1006.0
20260507231122 62 307 4.0 6.0 0.00 0.20 0.15 42 1005.9
20260507230122 62 279 4.0 7.0 0.00 0.20 0.15 42 1005.9
20260507225122 62 323 4.0 6.0 0.00 0.20 0.15 42 1005.9
20260507224126 62 308 5.0 9.0 0.00 0.20 0.15 41 1005.8
20260507223121 63 297 5.0 8.0 0.00 0.20 0.15 41 1005.9
20260507222122 63 312 4.0 8.0 0.00 0.20 0.15 40 1005.9
20260507221121 63 296 5.0 10.0 0.00 0.20 0.15 39 1005.9
20260507220121 64 300 5.0 9.0 0.00 0.20 0.15 39 1005.8
20260507215125 65 298 4.0 11.0 0.00 0.20 0.15 39 1005.8
20260507214122 65 318 5.0 10.0 0.00 0.20 0.15 38 1005.7
20260507213123 66 328 6.0 11.0 0.00 0.20 0.15 39 1005.6
20260507212126 67 333 6.0 10.0 0.00 0.20 0.15 37 1005.6
20260507211122 68 337 5.0 10.0 0.00 0.20 0.15 36 1005.5
20260507210121 68 299 5.0 9.0 0.00 0.20 0.15 35 1005.7
20260507205121 69 270 6.0 12.0 0.00 0.20 0.15 35 1005.7
20260507204131 69 309 5.0 7.0 0.00 0.20 0.15 36 1005.6
20260507204122 69 311 5.0 7.0 0.00 0.20 0.15 36 1005.6
20260507203122 68 12 4.0 6.0 0.00 0.20 0.15 36 1005.7
20260507202122 70 28 4.0 6.0 0.00 0.20 0.15 36 1005.8
20260507201121 69 293 4.0 10.0 0.00 0.20 0.15 36 1005.6
20260507200124 69 313 5.0 7.0 0.00 0.20 0.15 37 1005.8
20260507195121 68 336 4.0 7.0 0.00 0.20 0.15 37 1005.8
20260507194121 68 35 4.0 7.0 0.00 0.20 0.15 37 1005.9
20260507193121 69 317 5.0 10.0 0.00 0.21 0.15 37 1006.0
20260507192121 68 355 4.0 8.0 0.00 0.22 0.15 37 1006.1
20260507191124 68 309 4.0 8.0 0.00 0.22 0.15 37 1006.2
20260507190121 69 103 4.0 7.0 0.00 0.22 0.15 37 1006.2
20260507185148 69 328 5.0 8.0 0.00 0.22 0.15 35 1006.4
20260507184121 67 74 5.0 13.0 0.00 0.22 0.15 38 1006.5
20260507183123 68 0 4.0 8.0 0.00 0.22 0.15 39 1006.6
20260507182122 68 302 5.0 10.0 0.00 0.22 0.15 37 1006.8
20260507181144 67 329 5.0 10.0 0.00 0.22 0.15 39 1007.1
20260507180122 67 297 4.0 8.0 0.00 0.22 0.15 39 1007.1
20260507175122 67 300 5.0 9.0 0.00 0.22 0.15 39 1007.2
20260507174122 67 326 3.0 6.0 0.00 0.22 0.15 41 1007.1
20260507173122 67 19 4.0 9.0 0.00 0.22 0.15 41 1007.2
20260507172144 66 29 4.0 6.0 0.00 0.23 0.15 43 1007.5
20260507171121 67 298 4.0 9.0 0.00 0.23 0.15 43 1007.6
20260507170121 66 302 5.0 9.0 0.00 0.23 0.15 44 1007.8
20260507165121 66 338 4.0 7.0 0.00 0.24 0.15 46 1007.8
20260507164124 66 310 4.0 8.0 0.00 0.24 0.15 50 1007.8
20260507163122 64 336 5.0 9.0 0.00 0.24 0.15 53 1008.1
20260507162144 65 302 4.0 10.0 0.00 0.24 0.15 53 1008.2
20260507161121 64 23 5.0 8.0 0.00 0.24 0.15 54 1008.5
20260507160121 66 329 3.0 9.0 0.00 0.24 0.15 55 1008.6
20260507155145 63 0 5.0 10.0 0.00 0.24 0.15 56 1008.6
20260507154122 63 337 4.0 7.0 0.00 0.24 0.15 60 1008.6
20260507153121 62 307 4.0 9.0 0.00 0.24 0.15 57 1008.8
20260507152121 62 322 4.0 9.0 0.00 0.24 0.15 60 1008.8
20260507151121 61 326 4.0 7.0 0.00 0.24 0.15 62 1008.9
20260507150121 60 321 3.0 6.0 0.00 0.24 0.15 67 1008.9
20260507145127 60 309 4.0 7.0 0.00 0.24 0.15 66 1009.1
20260507144123 60 314 4.0 7.0 0.00 0.24 0.15 68 1009.0
20260507143146 59 326 3.0 6.0 0.00 0.24 0.15 73 1008.9
20260507142124 58 314 3.0 6.0 0.00 0.24 0.15 78 1009.0
20260507141122 58 319 4.0 9.0 0.00 0.24 0.15 78 1009.0
20260507140122 57 336 3.0 6.0 0.00 0.24 0.15 83 1009.0
20260507135122 55 304 5.0 9.0 0.00 0.24 0.15 84 1009.0
20260507134122 56 316 4.0 8.0 0.00 0.24 0.15 80 1008.9
20260507133143 56 340 3.0 6.0 0.00 0.24 0.15 83 1009.0
20260507132121 55 235 3.0 4.0 0.00 0.24 0.15 87 1009.1
20260507131123 55 315 4.0 9.0 0.00 0.24 0.15 86 1009.2
20260507130126 54 317 5.0 8.0 0.00 0.24 0.15 88 1009.2
20260507125142 54 312 4.0 8.0 0.00 0.24 0.15 89 1009.1
20260507124121 52 323 3.0 7.0 0.00 0.24 0.15 94 1009.2
20260507123123 51 329 4.0 7.0 0.00 0.24 0.15 95 1009.1
20260507122123 51 307 4.0 7.0 0.00 0.24 0.15 95 1009.0
20260507121121 51 285 3.0 7.0 0.00 0.24 0.15 95 1008.9
20260507120129 51 302 3.0 6.0 0.00 0.24 0.15 95 1008.9
20260507115143 51 320 4.0 9.0 0.00 0.24 0.15 96 1008.7
20260507114121 51 287 3.0 6.0 0.00 0.24 0.15 98 1008.5
20260507113123 50 301 3.0 5.0 0.00 0.24 0.15 99 1008.6
20260507112121 50 321 2.0 5.0 0.00 0.24 0.15 99 1008.2
20260507111124 50 324 2.0 5.0 0.00 0.24 0.15 99 1008.2
20260507110123 50 305 4.0 6.0 0.00 0.24 0.15 99 1008.2
20260507105124 50 320 3.0 5.0 0.00 0.24 0.15 99 1008.2
20260507104125 49 315 4.0 7.0 0.00 0.24 0.15 99 1008.1
20260507103124 49 312 4.0 7.0 0.00 0.24 0.15 99 1008.0
20260507102121 49 295 3.0 7.0 0.00 0.24 0.15 99 1007.7
20260507101145 49 324 4.0 7.0 0.00 0.24 0.15 99 1007.5
20260507100147 49 306 4.0 6.0 0.00 0.24 0.15 99 1007.5
20260507095143 49 308 3.0 5.0 0.01 0.24 0.15 99 1007.5